"Pseudo-MPEC" for P10TUzr

Created 2019 Nov 9 22:07:16 UT using Find_Orb

Click here for an explanation of pseudo-MPECs

 
 Astrometry: 
     P10TUzr  C2019 11 02^0nNd@?Astrometry2xredacted;:Mr2?5Ua!clickgt6ATHh-IXF51
     P10TUzr  C2019 11 02#]4+ExK0IX7uk1here0r1hG)$h]L0jPhHg_\r^4wx46uYG`Z?KfUF51
     P10TUzr  C2019 11 02Z.for8,?]6a+WFg)*!`SuiTjbh03jPBJ9[12r!explanationsWYF51

Station data:
(F51) Pan-STARRS 1, Haleakala  (N20.707235 W156.255910)  US/Hawaii.
   Observers N. Primak, A. Schultz, S. Watters, J. Thiel, T. Goggia. Measurer
   PS1 Science Consortium. 1.8-m Ritchey-Chrétien + CCD.

Orbital elements:  P10TUzr
   Perihelion 2019 Nov 10.317030 +/- 37.5 TT =  7:36:31 (JD 2458797.817030)
Epoch 2019 Nov  3.0 TT = JDT 2458790.5   Earth MOID: 0.0528   Ma: 0.0736
M 354.88904747 +/- 23               (J2000 ecliptic)          AutoNEOCP
n   0.69850094 +/- 0.39             Peri.    1.12777 +/- 60
a   1.25803111 +/- 0.468            Node    47.02978 +/- 43
e   0.1706939 +/- 0.257             Incl.    9.49132 +/- 10
P   1.41/515.38d           H 26.4   G  0.15   U 12.1  SR
q 1.04329276 +/- 0.213    Q 1.47276945 +/- 33.7
From 3 observations 2019 Nov. 2 (50.9 min); mean residual 0".06
Residuals in arcseconds: 
191102 F51  .07-  .05-    191102 F51  .10+  .07+    191102 F51  .03-  .02-    

Ephemerides (geocentric):
Date (UTC) HH   RA              Dec         delta   r     elong  mag " sig PA
---- -- -- --  -------------   -----------  ------ ------ -----  --- ---- ---
2019 11 09 22  04 00 19.278   +22 57 37.36  .05483 1.0433 164.1 21.0  77d   4
2019 11 09 23  04 00 19.182   +23 05 36.45  .05484 1.0433 164.1 21.0  78d   4
2019 11 10 00  04 00 19.081   +23 13 35.34  .05485 1.0433 164.1 21.0  78d   4
2019 11 10 01  04 00 18.975   +23 21 34.01  .05486 1.0433 164.1 21.0  79d   4
2019 11 10 02  04 00 18.864   +23 29 32.46  .05487 1.0433 164.1 21.0  79d   4
2019 11 10 03  04 00 18.748   +23 37 30.67  .05488 1.0433 164.1 21.0  79d   4
2019 11 10 04  04 00 18.627   +23 45 28.65  .05490 1.0433 164.1 21.0  79d   4
2019 11 10 05  04 00 18.501   +23 53 26.38  .05491 1.0433 164.1 21.0  79d   4
2019 11 10 06  04 00 18.370   +24 01 23.87  .05492 1.0433 164.1 21.0  79d   4
2019 11 10 07  04 00 18.234   +24 09 21.10  .05493 1.0433 164.1 21.0  79d   4
2019 11 10 08  04 00 18.093   +24 17 18.07  .05495 1.0433 164.0 21.0  79d   4
2019 11 10 09  04 00 17.947   +24 25 14.77  .05496 1.0433 164.0 21.0  79d   4
2019 11 10 10  04 00 17.796   +24 33 11.19  .05498 1.0433 164.0 21.0  79d   4
2019 11 10 11  04 00 17.640   +24 41 07.34  .05499 1.0433 164.0 21.0  79d   4
2019 11 10 12  04 00 17.479   +24 49 03.19  .05501 1.0433 164.0 21.0  79d   4
2019 11 10 13  04 00 17.313   +24 56 58.76  .05502 1.0433 164.0 21.0  79d   4
2019 11 10 14  04 00 17.142   +25 04 54.02  .05504 1.0433 164.0 21.0  79d   4
2019 11 10 15  04 00 16.966   +25 12 48.98  .05505 1.0433 163.9 21.0  79d   4
2019 11 10 16  04 00 16.785   +25 20 43.63  .05507 1.0433 163.9 21.0  79d   4
2019 11 10 17  04 00 16.599   +25 28 37.96  .05509 1.0433 163.9 21.0  79d   4
2019 11 10 18  04 00 16.408   +25 36 31.96  .05510 1.0433 163.9 21.0  79d   4
2019 11 10 19  04 00 16.212   +25 44 25.64  .05512 1.0433 163.8 21.0  78d   4
2019 11 10 20  04 00 16.011   +25 52 18.98  .05514 1.0433 163.8 21.0  78d   4
2019 11 10 21  04 00 15.804   +26 00 11.98  .05516 1.0433 163.8 21.0  78d   4
2019 11 10 22  04 00 15.593   +26 08 04.63  .05517 1.0433 163.8 21.0  78d   4
2019 11 10 23  04 00 15.377   +26 15 56.92  .05519 1.0433 163.7 21.0  78d   4
2019 11 11 00  04 00 15.155   +26 23 48.86  .05521 1.0433 163.7 21.0  78d   4
2019 11 11 01  04 00 14.929   +26 31 40.42  .05523 1.0433 163.7 21.0  78d   5
2019 11 11 02  04 00 14.697   +26 39 31.62  .05525 1.0433 163.7 21.0  79d   5
2019 11 11 03  04 00 14.461   +26 47 22.44  .05527 1.0433 163.6 21.0  80d   5
2019 11 11 04  04 00 14.219   +26 55 12.88  .05529 1.0433 163.6 21.0  80d   5
2019 11 11 05  04 00 13.973   +27 03 02.92  .05531 1.0433 163.6 21.0  80d   5
2019 11 11 06  04 00 13.721   +27 10 52.57  .05533 1.0433 163.5 21.0  80d   5
2019 11 11 07  04 00 13.464   +27 18 41.82  .05535 1.0433 163.5 21.0  80d   5
2019 11 11 08  04 00 13.203   +27 26 30.67  .05537 1.0433 163.5 21.0  80d   5
2019 11 11 09  04 00 12.936   +27 34 19.10  .05540 1.0433 163.4 21.0  80d   6
2019 11 11 10  04 00 12.664   +27 42 07.11  .05542 1.0433 163.4 21.0  80d   6
2019 11 11 11  04 00 12.387   +27 49 54.70  .05544 1.0433 163.3 21.0  80d   6
2019 11 11 12  04 00 12.104   +27 57 41.86  .05546 1.0433 163.3 21.0  81d   6
2019 11 11 13  04 00 11.817   +28 05 28.58  .05549 1.0433 163.3 21.0  81d   6
2019 11 11 14  04 00 11.525   +28 13 14.86  .05551 1.0433 163.2 21.0  80d   6
2019 11 11 15  04 00 11.228   +28 21 00.70  .05554 1.0433 163.2 21.0  80d   6
2019 11 11 16  04 00 10.925   +28 28 46.08  .05556 1.0433 163.1 21.0  80d   6
2019 11 11 17  04 00 10.618   +28 36 31.01  .05558 1.0433 163.1 21.0  80d   6
2019 11 11 18  04 00 10.305   +28 44 15.48  .05561 1.0433 163.1 21.0  80d   6
2019 11 11 19  04 00 09.987   +28 51 59.47  .05563 1.0433 163.0 21.1  80d   6
2019 11 11 20  04 00 09.664   +28 59 43.00  .05566 1.0433 163.0 21.1  80d   6
2019 11 11 21  04 00 09.336   +29 07 26.04  .05569 1.0433 162.9 21.1  81d   6